Location: Unspecified
(54.1780°N, 0.0000°E)
Time: 03:33:19
(UTC+00:00)

Transit 2A - Visible Passes

Search period start: 18 June 2019 00:00
Search period end: 28 June 2019 00:00
Orbit: 593 x 966 km, 66.7° (Epoch: 16 June)

Date Brightness Start Highest point End Pass type
(mag) Time Alt. Az. Time Alt. Az. Time Alt. Az.
18 Jun 7.2 01:02:21 14° S 01:07:26 40° ESE 01:13:12 10° NE visible
19 Jun 7.5 00:28:59 14° SSE 00:33:29 31° ESE 00:38:53 10° NE visible
19 Jun 6.6 02:09:57 10° SW 02:16:22 78° NW 02:22:35 10° NE visible
19 Jun 7.8 23:55:34 13° SSE 23:59:36 24° ESE 00:04:27 10° ENE visible
20 Jun 6.5 01:36:03 11° SW 01:42:13 86° SE 01:48:27 10° NE visible
20 Jun 8.1 23:22:07 11° SE 23:25:45 18° ESE 23:29:49 10° ENE visible
21 Jun 6.6 01:02:34 14° SSW 01:08:07 69° SE 01:14:18 10° NE visible
21 Jun 8.3 22:49:09 10° SE 22:51:59 13° ESE 22:54:47 10° ENE visible
22 Jun 6.7 00:29:03 16° SSW 00:34:04 54° ESE 00:40:06 10° NE visible
22 Jun 7.1 02:11:18 10° WSW 02:17:30 51° NW 02:23:28 10° NE visible
22 Jun 7.0 23:55:28 17° S 00:00:04 42° ESE 00:05:52 10° NE visible
23 Jun 6.9 01:36:56 10° WSW 01:43:15 62° NW 01:49:20 10° NE visible
23 Jun 7.3 23:21:50 16° SSE 23:26:06 33° ESE 23:31:34 10° NE visible
24 Jun 6.6 01:02:38 10° SW 01:09:03 75° NW 01:15:13 10° NE visible
24 Jun 7.6 22:48:07 14° SSE 22:52:13 25° ESE 22:57:10 10° ENE visible
25 Jun 6.5 00:28:33 10° SW 00:34:54 89° SE 00:41:04 10° NE visible
25 Jun 7.8 02:13:02 10° W 02:18:51 36° NNW 02:24:22 10° NE visible
25 Jun 7.9 22:14:18 11° SSE 22:18:21 19° ESE 22:22:35 10° ENE visible
25 Jun 6.5 23:54:44 12° SSW 00:00:47 72° SE 00:06:55 10° NE visible
26 Jun 7.5 01:38:30 10° WSW 01:44:31 42° NNW 01:50:13 10° NE visible
26 Jun 8.2 21:41:24 10° SE 21:44:33 14° ESE 21:47:39 10° ENE visible
26 Jun 6.6 23:20:49 12° SSW 23:26:43 57° ESE 23:32:44 10° NE visible
27 Jun 7.3 01:04:03 10° WSW 01:10:12 49° NW 01:16:04 10° NE visible
27 Jun 6.9 22:46:45 10° S 22:52:42 45° ESE 22:58:31 10° NE visible
